Regional Weather Roundup
Issued by NWS Kansas City/Pleasant Hill, MO

Home | Current Version | Previous Version | Graphics & Text | Print | Product List | Glossary Off
Versions: 1 2 3 4 5 6 7 8 9 10 11 12 13 14 15 16 17 18 19 20 21 22 23 24 25 26 27 28 29 30 31 32 33 34 35 36 37 38 39 40 41 42 43 44 45 46 47 48 49 50

000
ASUS43 KEAX 191904
RWREAX

WEATHER ROUNDUP FOR EASTERN KANSAS AND NORTHWEST MISSOURI
NATIONAL WEATHER SERVICE KANSAS CITY/PLEASANT HILL MO
100 PM CST FRI DEC 19 2014

KSZ040-057-103>105-MOZ028-029-037-043-192000-
...KANSAS CITY METROPOLITAN AREA...

CITY           SKY/WX    TMP DP  RH WIND       PRES   REMARKS
K.C. INTL      LGT SNOW  31  31 100 S3        30.24F FOG
K.C. DOWNTOWN  CLOUDY    33  30  88 CALM      30.25F
LEES SUMMIT    CLOUDY    33  29  85 VRB3      30.24F
OLATHE - IXD   CLOUDY    33  29  85 CALM      30.24F
OLATHE - OJC   CLOUDY    33  29  85 CALM      30.23F
LAWRENCE       PTSUNNY   34  29  82 N3        30.25F

$$

MOZ001>008-011>017-020>025-030>033-038>040-044>046-053-054-192000-
...NORTHERN AND CENTRAL MISSOURI...

CITY           SKY/WX    TMP DP  RH WIND       PRES   REMARKS
ST. JOSEPH     CLOUDY    31  29  92 S8        30.26F FOG     WCI  23
MOSBY          CLOUDY    32  32 100 CALM      30.25F
WARRENSBURG    CLOUDY    34  32  93 CALM      30.25F FOG
WHITEMAN AFB   CLOUDY    36  34  94 CALM      30.24F
CLINTON        CLOUDY    37  36  93 E3        30.26F FOG
SEDALIA        CLOUDY    37  34  89 CALM      30.25F FOG
WARSAW         NOT AVBL
MARSHALL       CLOUDY    37  36  93 S6        30.30R FOG     WCI  33
CHILLICOTHE      N/A     33  29  85 S5        30.28F WCI  29
KIRKSVILLE     CLOUDY    31  28  89 SE5       30.27S FOG     WCI  26

$$

MOZ041-047>049-056>058-063>065-088>090-097-192000-
...EASTERN AND SOUTHERN MISSOURI...

CITY           SKY/WX    TMP DP  RH WIND       PRES   REMARKS
ST. LOUIS INTL CLOUDY    38  27  64 CALM      30.30R
SPIRIT OF STL  CLOUDY    36  29  75 VRB3      30.30R
COLUMBIA       CLOUDY    36  32  85 S5        30.27S WCI  32
JEFFERSON CITY CLOUDY    37  32  82 S6        30.28F WCI  32
MEXICO         CLOUDY    36  36 100 CALM      30.29  FOG
HANNIBAL       CLOUDY    34  27  75 S5        30.29R WCI  30
ROLLA          CLOUDY    34  31  88 MISG      30.24F
LEBANON        CLOUDY    36  34  93 CALM      30.23F
OSAGE BEACH    CLOUDY    37  32  81 E5        30.25F WCI  34
SPRINGFIELD    CLOUDY    38  36  92 SE6       30.21F FOG     WCI  33
BRANSON        FOG       39  37  93 SE8       30.22F VSB 1   WCI  34
NEVADA         FOG       36  36 100 CALM      30.25F VSB 3/4
JOPLIN         FOG       38  38 100 N5        30.22F VSB 1/4 WCI  34
WEST PLAINS    CLOUDY    35  32  88 SE5       30.24F WCI  31

$$

IAZ060-094-KSZ022-034>040-054-083-096-NEZ052-066-093-192000-
...KANSAS...SOUTHEAST NEBRASKA AND IOWA...

CITY           SKY/WX    TMP DP  RH WIND       PRES   REMARKS
TOPEKA         CLOUDY    32  29  88 CALM      30.25F
MANHATTAN      CLOUDY    32  30  92 S7        30.23F FOG     WCI  26
EMPORIA        CLOUDY    32  28  85 CALM      30.23F
CHANUTE        CLOUDY    35  34  96 N6        30.24F FOG     WCI  30
WICHITA        CLOUDY    35  31  85 S3        30.22F
OMAHA          CLOUDY    33  29  85 S13       30.20F FOG     WCI  24
LINCOLN        CLOUDY    34  29  82 S13       30.19F WCI  25
FALLS CITY     CLOUDY    30  26  85 S9        30.23F WCI  22
LAMONI         CLOUDY    31  28  89 S5        30.23F WCI  26
DES MOINES     CLOUDY    33  27  78 S8        30.23F WCI  26

$$



USA.gov is the U.S. government's official web portal to all federal, state and local government web resources and services.